Info for pilots

Image

Airfield Info:

EBUL
N51 08.7 - E003 28.6
ELEV 95' / 29m
RWY 07 / 25
799m * 45m (CIV) - 2980m (MIL)
Ursel Radio 135.130
Tel Aero Club Brugge : +32(0)9 374 25 75
Tel Vliegclub Ursel : +32(0)9 374 12 90

Operational Hours
FRI: 14h00LT - SS+30 MIN
SAT, SUN and HOL: TKOF and LDG: 10h00LT - SS+30 MIN
After 20h00LT to SS+30 MIN: only LDG allowed (PN)

Local Traffic Regulations
The use of the AD is subject to PPR from the OPR;
AD given in concession to the CIV club outside MIL ACT;
Solo training flights can only be performed after two reconnaissance flights with instructor. The solo training flight must be performed within six weeks after the first reconnaissance flight;
Jet aircraft operations not allowed.

Obstacles:
trees between 10M AGL and 22M AGL, caution when crosswind:
North of the RWY, 75M from CL, along the whole length of the RWY;
South of the RWY, 75M from CL, and at THR RWY 25 from THR RWY 07 to 140M east of THR RWY 07



Image

Image

Watch out!

Flight Procedures
RWY 07 and 25 left hand circuit, 1.200 FT QNH

Image

Taxi procedures:
RWY 07 (TKOF):
taxi on the north side of the RWY to the HLDG position of RWY 07

RWY 07 (LDG):
after landing roll out to the second intersection (THR RWY 25), turn left, turn left again, taxi via the TWY to the first intersection, turn left, cross the RWY (check for landing ACFT), taxi on the south side of the RWY to the AD reporting office

RWY 25 (TKOF):
taxi on the north side of the first intersection, turn left, next turn right, taxi via the TWY to the second intersection, turn right, taxi to the HLDG of RWY 25

RWY 25 (LDG):
after landing roll out to the end of the RWY, taxi on the south side of the RWY to the AD reporting office.





Image

Taxi & Circuit?

Image
Image
Image
Image

Current Metars - Auto refresh

EBOS - Oostende
2019/12/14 11:20 EBOS 141120Z 21012KT 8000 -RA SCT030 07/04 Q0992 TEMPO SHRA


EBAW - Antwerpen
2019/12/14 11:20 EBAW 141120Z 24012KT 9999 FEW015 08/02 Q0993 TEMPO 25020G30KT


EBBR - Brussel
2019/12/14 11:20 EBBR 141120Z 23013KT CAVOK 07/02 Q0993 TEMPO 25020G30KT 4000 SHRA

Source : NOAA.GOV

Current TAFs - Auto refresh

EBOS - Oostende
2019/12/14 12:27 TAF EBOS 141110Z 1412/1518 26025G35KT 9999 FEW020TCU SCT040 PROB40 TEMPO 1412/1416 26030G45KT PROB30 TEMPO 1412/1413 4500 SHRA BECMG 1418/1420 18015G25KT BECMG 1501/1503 24020G32KT PROB30 TEMPO 1501/1504 4000 SHRA RA BKN014 PROB40 TEMPO 1503/1506 25027G42KT BECMG 1512/1514 20014KT

EBAW - Antwerpen
2019/12/14 12:27 TAF TAF EBAW 141110Z 1412/1421 25015G25KT 9999 FEW016TCU SCT035 PROB40 TEMPO 1412/1416 25022G37KT PROB30 TEMPO 1412/1414 4000 SHRA

EBBR - Brussel
2019/12/14 12:27 TAF TAF EBBR 141110Z 1412/1518 24015G25KT 9999 FEW016TCU SCT035 PROB40 TEMPO 1412/1416 25022G37KT PROB30 TEMPO 1412/1414 4000 SHRA BECMG 1417/1419 18011KT BECMG 1500/1503 24015G25KT PROB30 TEMPO 1500/1505 4000 SHRA RA BKN014 PROB40 TEMPO 1504/1507 25024G38KT BECMG 1513/1515 22013KT

Source : NOAA.GOV
Image

Webcam

Direction runway 07 :